Location: Bednik
(45.3500°N, 16.3833°E)
Time: 17:52:39
(UTC+00:00)

MOS 1-B Rocket - Pass Details

Date: 08 August 2020
Orbit: 890 x 1606 km, 99.1° (Epoch: 24 September)

Event Time Altitude Azimuth Distance (km) Brightness Sun altitude
Rises 20:46:52 0° 21° (NNE) 3,588 7.4 -21.8°
Reaches altitude 10° 20:49:33 10° 30° (NNE) 2,599 6.5 -22.1°
Maximum altitude 20:54:43 36° 97° (E) 1,384 4.5 -22.6°
Enters shadow 20:54:52 36° 100° (E) 1,386 4.5 -22.6°
